Regional Weather Roundup
Issued by NWS

Home | Current Version | Previous Version | Text Only | Print | Product List | Glossary Off
Versions: 1 2 3 4 5 6 7 8 9 10 11 12 13 14 15 16 17 18 19 20 21 22 23 24 25 26 27 28 29 30 31 32 33 34 35 36 37 38 39 40 41 42 43 44 45 46 47 48 49 50

000
ASUS43 KDMX 212206
RWRIA

WEATHER ROUNDUP FOR IOWA
NATIONAL WEATHER SERVICE DES MOINES IA
500 PM CDT FRI JUL 21 2017

NOTE: "FAIR" INDICATES FEW OR NO CLOUDS BELOW 12,000 FEET WITH NO
SIGNIFICANT WEATHER AND/OR OBSTRUCTIONS TO VISIBILITY.

* - THESE STATIONS ARE NOT NWS STATIONS...THUS NOT UNDER NWS
QUALITY CONTROL.  THEY ALSO DO NOT REPORT WEATHER SUCH
AS PRECIPITATION OR FOG.

IAZ001>003-012>014-020>022-031>034-043>046-212300-
   NORTHWEST IOWA

CITY           SKY/WX    TMP DP  RH WIND       PRES   REMARKS
CARROLL *      LGT RAIN  81  79  94 SE10      29.79F HX  89
CHEROKEE *       N/A     83  77  80 E9        29.81F HX  92
DENISON *        N/A     90  81  74 SE12      29.79F HX 108
ORANGE CITY *    N/A     84  75  74 E6        29.81F HX  92
SHELDON *      PTSUNNY   82  75  78 E12       29.82S HX  89
SIOUX CITY       N/A     89  79  72 E12       29.76F HX 104
SPENCER        CLOUDY    81  73  76 E9        29.84F HX  86
STORM LAKE *     N/A     77  75  94 E10       29.82F FOG
$$

IAZ055>058-069>071-079>083-090>094-212300-
   SOUTHWEST IOWA

CITY           SKY/WX    TMP DP  RH WIND       PRES   REMARKS
ATLANTIC *       N/A     95  77  55 S10G17    29.79S HX 109
AUDUBON *        N/A     91  81  70 S7        29.82F HX 110
CLARINDA *       N/A     93  81  66 S13       29.80F HX 113
COUNCIL BLFS *   N/A     97  77  52 S14       29.77F HX 112
CRESTON *        N/A     95  77  55 S18G25    29.83S HX 109
HARLAN  *        N/A     95  79  59 S10       29.82F HX 112
LAMONI           N/A     94  77  57 S17G24    29.83F HX 108
RED OAK *        N/A     95  81  63 S12G21    29.77S HX 115
SHENANDOAH *     N/A     95  81  63 S10G17    29.77S HX 115
$$

IAZ047>049-059>061-072>074-084-212300-
   CENTRAL IOWA

CITY           SKY/WX    TMP DP  RH WIND       PRES   REMARKS
AMES           LGT RAIN  79  78  97 NE7       29.83R HX  83
ANKENY *         N/A     84  79  84 E9        29.81S HX  96
BOONE *          N/A     77  75  94 SE9G16    29.82F FOG
CHARITON *       N/A     97  75  49 S17G24    29.81F HX 109
DES MOINES     PTSUNNY   97  72  44 S10G20    29.78S HX 105
GRINNELL*        N/A     85  78  80 NE8       29.84F HX  97
KNOXVILLE *      N/A     97  73  46 SW15      29.79F HX 107
MARSHALLTOWN   LGT RAIN  78  75  90 E10       29.82F HX  81
NEWTON *         N/A     86  79  79 NE7G14    29.82S HX  99
PELLA *          N/A     96  73  46 SW15      29.81F HX 105
$$

IAZ004>006-015-016-023>025-035-036-212300-
   NORTH CENTRAL IOWA

CITY           SKY/WX    TMP DP  RH WIND       PRES   REMARKS
ALGONA *         N/A     75  73  94 E8        29.85S
ESTHERVILLE      N/A     78  71  79 E10       29.85F HX  80
FORT DODGE *   CLOUDY    73  72  94 NE7       29.86R
MASON CITY       N/A     72  68  87 E10       29.88F
FOREST CITY *    N/A     72  68  88 E9        29.86F
WEBSTER CITY *   N/A     75  73  94 E12       29.81S FOG
IOWA FALLS *   LGT RAIN  77  72  85 E5G10     29.87R
$$

IAZ007>011-017>019-026>030-037>042-050>054-066-212300-
   NORTHEAST IOWA

CITY           SKY/WX    TMP DP  RH WIND       PRES   REMARKS
CEDAR RAPIDS   TSTM      78  76  93 SW20      29.85R FOG     HX  81
CHARLES CITY *   N/A     72  72 100 NE6       29.89F
CLINTON *        N/A     86  79  79 E12       29.85F HX  99
DECORAH *      RAIN      70  68  94 SE9       29.90S
DUBUQUE        CLOUDY    75  70  84 N14       29.91R
MONTICELLO *   CLOUDY    81  73  78 NE12G18   29.88R HX  85
OELWEIN *        N/A     72  70  94 E13       29.86F
WATERLOO         N/A     76  69  79 E12       29.83F
$$

IAZ064-065-067-068-078-212300-
   EAST CENTRAL IOWA

CITY           SKY/WX    TMP DP  RH WIND       PRES   REMARKS
DAVENPORT      PTSUNNY   87  79  76 NE7       29.85F HX 101
IOWA CITY      TSTM      88  80  77 SE5       29.82F HX 104
MT. PLEASANT *   N/A     94  71  47 S15G24    29.82R HX 102
MUSCATINE *      N/A     91  77  62 S12G18    29.81S HX 105
QUAD CITIES      N/A     93  77  59 S13       29.82F HX 107
$$

IAZ062-063-075>077-085>089-095>099-212300-
   SOUTHEAST IOWA

CITY           SKY/WX    TMP DP  RH WIND       PRES   REMARKS
BURLINGTON       N/A     93  76  57 S15G23    29.82F HX 105
FAIRFIELD *      N/A     95  72  46 SW16      29.82R HX 103
FORT MADISON *   N/A     93  79  62 S14G20    29.83F HX 110
KEOKUK *         N/A     97  73  46 SW13G20   29.82F HX 107
OSKALOOSA *      N/A     96  74  49 SW14G20   29.81S HX 107
CENTERVILLE *    N/A     93  77  59 S16G23    29.85F HX 107
OTTUMWA          N/A     97  72  44 SW14G25   29.80F HX 105
WASHINGTON *     N/A     91  75  59 S9G17     29.82R HX 102
$$

ABBREVIATIONS USED IN REMARKS
   TC - TEMPERATURES IN CELSIUS
  WCI - WIND CHILL INDEX
   HX - HEAT INDEX
  VSB - VISIBILITY
$$





USA.gov is the U.S. government's official web portal to all federal, state and local government web resources and services.